Location: Schommer Observatory
(40.5200°N, 74.4500°W)
Time: 06:28:06
(UTC-04:00)

Tiangong 2 - Visible Passes

Search period start: 21 July 2017 00:00
Search period end: 31 July 2017 00:00
Orbit: 392 x 394 km, 42.8° (Epoch: 20 July)

Date Brightness Start Highest point End Pass type
(mag) Time Alt. Az. Time Alt. Az. Time Alt. Az.
21 Jul 1.8 20:56:35 10° WNW 20:59:46 54° N 21:02:55 10° E visible
21 Jul 1.4 22:33:35 10° WNW 22:36:21 60° W 22:36:21 60° W visible
22 Jul 1.1 21:36:44 10° WNW 21:39:57 79° NNE 21:41:53 22° E visible
22 Jul 4.0 23:13:56 10° W 23:14:15 12° W 23:14:15 12° W visible
23 Jul 1.7 22:16:53 10° W 22:19:47 42° SW 22:19:47 42° SW visible
24 Jul 1.2 21:19:58 10° WNW 21:23:09 67° SSW 21:25:20 19° ESE visible
25 Jul 2.6 22:00:21 10° W 22:02:59 23° SSW 22:03:16 23° SSW visible
26 Jul 2.0 21:03:13 10° W 21:06:14 37° SSW 21:08:52 12° SE visible
27 Jul 3.6 21:44:28 10° WSW 21:45:52 12° SW 21:46:54 11° SSW visible
28 Jul 3.1 20:46:41 10° W 20:49:11 20° SSW 20:51:39 10° SSE visible
